MDT,Max TemperatureF,Mean TemperatureF,Min TemperatureF,Max Dew PointF,MeanDew PointF,Min DewpointF,Max Humidity, Mean Humidity, Min Humidity, Max Sea Level PressureIn, Mean Sea Level PressureIn, Min Sea Level PressureIn, Max VisibilityMiles, Mean VisibilityMiles, Min VisibilityMiles, Max Wind SpeedMPH, Mean Wind SpeedMPH, Max Gust SpeedMPH,PrecipitationIn, CloudCover, Events, WindDirDegrees
2012-9-1,100,77,54,48,39,29,66,37,8,30.03,29.93,29.85,10,10,7,24,10,32,0.00,0,,177
2012-9-2,95,80,64,53,47,41,56,36,15,29.93,29.88,29.83,10,10,10,23,7,29,T,0,,19
2012-9-3,96,79,62,54,50,47,63,42,20,30.01,29.89,29.82,10,10,10,20,6,26,0.00,0,,249
2012-9-4,100,77,54,50,39,28,66,37,8,29.92,29.83,29.75,10,10,7,18,7,28,0.00,0,,284
2012-9-5,85,70,55,41,37,32,49,33,17,30.06,29.97,29.85,10,10,10,22,9,26,0.00,0,,39
2012-9-6,99,77,54,48,34,16,67,36,5,29.97,29.87,29.76,10,10,10,33,9,33,0.00,0,,97
2012-9-7,74,62,50,49,45,41,66,51,35,30.28,30.14,29.94,10,10,9,20,9,26,T,2,,7
2012-9-8,86,65,43,44,37,28,83,48,13,30.33,30.21,30.11,10,10,8,18,7,24,0.00,0,,316
2012-9-9,87,64,41,43,37,33,76,46,15,30.29,30.15,30.01,10,10,10,20,10,28,0.00,0,,157
2012-9-10,100,79,57,45,36,24,57,33,8,29.99,29.84,29.74,10,10,10,23,13,31,0.00,0,,180
2012-9-11,96,74,52,47,43,34,71,43,15,29.84,29.75,29.68,10,10,10,35,9,41,0.00,0,,123
2012-9-12,69,60,50,54,45,31,93,59,25,30.40,30.19,29.86,10,9,4,29,13,35,0.08,6,Rain,21
2012-9-13,74,57,40,50,42,36,100,63,25,30.48,30.43,30.36,10,4,0,12,4,16,0.00,1,Fog,222
2012-9-14,84,63,42,43,37,32,82,50,17,30.41,30.32,30.22,10,10,10,15,6,20,0.00,0,,197
2012-9-15,87,69,50,38,34,31,50,32,13,30.27,30.11,29.98,10,10,9,20,10,25,0.00,0,,185
2012-9-16,94,69,44,40,31,18,65,36,7,30.03,29.92,29.79,10,10,10,23,10,28,0.00,0,,200
2012-9-17,72,58,43,41,37,32,71,48,25,30.16,30.08,29.97,10,10,8,24,11,30,0.00,0,,10
2012-9-18,84,61,37,40,35,33,79,48,17,30.14,30.02,29.92,10,10,10,20,6,26,0.00,0,,289
2012-9-19,88,64,40,36,32,29,65,39,13,30.06,29.98,29.89,10,10,6,25,10,32,0.00,0,,351
2012-9-20,85,61,37,35,32,28,70,42,13,30.13,30.02,29.94,10,10,5,21,8,25,0.00,0,,288
2012-9-21,84,68,51,35,34,33,50,34,17,30.09,30.01,29.96,10,10,10,24,11,38,0.00,0,,317
2012-9-22,76,58,39,34,32,28,67,43,19,30.29,30.22,30.11,10,10,8,14,7,20,0.00,0,,114
2012-9-23,77,62,47,34,31,28,50,35,19,30.24,30.15,30.06,10,10,6,23,12,30,0.00,0,,162
2012-9-24,82,64,46,43,38,31,66,45,23,30.07,29.94,29.83,10,10,10,5,5,5,0.00,0,,141
2012-9-25,77,63,49,47,45,42,74,54,33,29.98,29.89,29.82,10,10,9,14,6,17,0.00,2,,58
2012-9-26,80,63,46,50,42,34,86,53,19,30.13,30.05,29.95,10,10,9,17,6,35,0.00,1,,117
2012-9-27,76,62,48,56,49,36,93,59,25,30.20,30.15,30.11,10,9,2,20,5,26,0.02,4,Rain,165
2012-9-28,75,61,47,52,45,40,93,61,29,30.21,30.15,30.07,10,9,3,17,6,23,0.00,3,,163
2012-9-29,77,59,41,55,48,39,100,69,38,30.18,30.13,30.02,10,5,0,15,6,21,0.00,2,Fog,186
2012-9-30,86,67,48,52,46,40,96,58,19,30.02,29.96,29.86,10,9,2,29,8,46,0.03,2,Rain-Thunderstorm,326